This demonstration page uses our WeatherBlox Daily Observations layout. Learn more.

39.29038, -76.61219

Hourly Observations for July 20, 2015

Temp ( °F °C ) Dew Point ( °F °C ) Humidity (%) Winds ( mph kmh ) Pressure ( in mb ) Visibility ( mi km ) Precip ( " mm )
12:54 am 00:54 Cloudy 86 30 72 22.2 63 63 undefined N/A 29.79 1009 N/A 0 0
1:54 am 01:54 undefined 85 29.4 72 22.2 65 65 undefined N/A 29.77 1008 N/A 0 0
2:54 am 02:54 undefined 84 28.9 72 22.2 67 67 undefined N/A 29.76 1008 N/A 0 0
3:54 am 03:54 undefined 84 28.9 72 22.2 67 67 undefined N/A 29.75 1008 N/A 0 0
4:54 am 04:54 Mostly Clear 84 28.9 71 21.7 65 65 undefined N/A 29.75 1008 N/A 0 0
5:54 am 05:54 undefined 83 28.3 72 22.2 70 70 undefined N/A 29.76 1008 N/A 0 0
6:54 am 06:54 Sunny 80 26.6 74 23.3 82 82 undefined N/A 28.08 951 N/A 0 0
7:54 am 07:54 Mostly Sunny 83 28.3 70 21.1 65 65 undefined N/A 29.78 1008 N/A 0 0
8:54 am 08:54 Partly Cloudy 75 23.9 74 23.3 96 96 undefined N/A 29.99 1016 N/A 0 0
9:54 am 09:54 undefined 87 30.6 67 19.4 51 51 undefined N/A 29.78 1008 N/A 0 0
10:54 am 10:54 undefined 90 32.2 68 20 48 48 undefined N/A 29.77 1008 N/A 0 0
11:54 am 11:54 undefined 91 32.8 69 20.6 49 49 undefined N/A 29.76 1008 N/A 0 0
12:54 pm 12:54 undefined 93 33.9 69 20.6 46 46 undefined N/A 29.75 1008 N/A 0 0
1:54 pm 13:54 undefined 94 34.4 69 20.6 44 44 undefined N/A 29.75 1007 N/A 0 0
2:54 pm 14:54 undefined 93 33.9 68 20 44 44 undefined N/A 29.74 1007 N/A 0 0
3:54 pm 15:54 Mostly Sunny 92 33.3 67 19.4 44 44 undefined N/A 29.73 1007 N/A 0 0
4:54 pm 16:54 undefined 94 34.4 66 18.9 40 40 undefined N/A 29.72 1006 N/A 0 0
5:54 pm 17:54 undefined 92 33.3 68 20 46 46 undefined N/A 29.71 1006 N/A 0 0
6:54 pm 18:54 Partly Cloudy 91 32.8 68 20 47 47 undefined N/A 29.7 1006 N/A 0 0
7:54 pm 19:54 undefined 90 32.2 69 20.6 50 50 undefined N/A 29.7 1006 N/A 0 0
8:54 pm 20:54 Cloudy 85 29.4 80 26.7 85 85 undefined N/A 29.88 1012 N/A 0 0
9:54 pm 21:54 undefined 87 30.6 71 21.7 59 59 undefined N/A 29.73 1007 N/A 0 0
10:54 pm 22:54 undefined 86 30 72 22.2 63 63 undefined N/A 29.72 1006 N/A 0 0
11:54 pm 23:54 undefined 85 29.4 71 21.7 63 63 undefined N/A 29.7 1006 N/A 0 0

Powered by AerisWeather